Location: Capelle
(50.3413°N, 1.9974°E)
Time: 00:54:36
(UTC+00:00)

NOSS 3-4 (C) - Pass Details

Date: 12 January 2026
Orbit: 773 x 1438 km, 63.4° (Epoch: 26 December)

Event Time Altitude Azimuth Distance (km) Brightness Sun altitude
Rises 19:21:47 0° 230° (SW) 3,252 6.9 -29.3°
Reaches altitude 10° 19:24:06 10° 233° (SW) 2,352 6.1 -29.6°
Enters shadow 19:29:03 67° 289° (WNW) 905 3.4 -30.4°
